Weather History for Pratica di Mare, Italy

Change the Weather History Date:

Saturday, July 20, 2013

  Actual Average Record
Temperature  
Mean Temperature 75 °F -  
Max Temperature 84 °F 82 °F 89 °F (2007)
Min Temperature 66 °F 64 °F 62 °F (2004)
Cooling Degree Days 10    
Growing Degree Days 25 (Base 50)    
Moisture  
Dew Point 67 °F    
Average Humidity 73    
Maximum Humidity 94    
Minimum Humidity 38    
Precipitation  
Precipitation 0.00 in 0.03 in - ()
Sea Level Pressure  
Sea Level Pressure 29.98 in    
Wind  
Wind Speed 8 mph ()    
Max Wind Speed 14 mph    
Max Gust Speed -    
Visibility 9.6 miles    
Events      
Averages and records for this station are not official NWS values.
T = Trace of Precipitation, MM = Missing Value Source: Averaged Metar Reports

Daily Weather History Graph

Daily Weather History Graph

Search for Another Location

Airport:

Trip Planner

Search our weather history database for the weather conditions in past years. The results will help you decide how hot, cold, wet, or windy it might be!

Date:

Astronomy

Jul. 20, 2013 Rise Set
Actual Time 5:53 AM CEST 8:39 PM CEST
Civil Twilight 5:20 AM CEST 9:11 PM CEST
Nautical Twilight 4:39 AM CEST 9:52 PM CEST
Astronomical Twilight 3:52 AM CEST 10:39 PM CEST
Moon 6:26 PM CEST (7/20) 3:15 AM CEST (7/20)
Length of Visible Light 15h 51m
Length of Day
14h 46m
Waxing Gibbous, 92% of the Moon is Illuminated
Jul 20
Waxing Gibbous
Jul 22
Full
Jul 29
Last Quarter
Aug 6
New
Aug 14
First Quarter

Hourly Weather History & Observations

Time (CEST) Temp. Heat Index Dew Point Humidity Pressure Visibility Wind Dir Wind Speed Gust Speed Precip Events Conditions
12:55 AM 69.8 °F - 68.0 °F 94% 30.01 in 6.2 mi NE 8.1 mph - N/A   Partly Cloudy
1:55 AM 68.0 °F - 66.2 °F 94% 30.01 in - NNE 8.1 mph - N/A   Clear
2:00 AM 68 °F - 66 °F 92% 30.02 in 9 mi NNE 8.1 mph - -  
3:55 AM 68.0 °F - 64.4 °F 88% 30.01 in - NNE 9.2 mph - N/A   Clear
4:55 AM 66.2 °F - 64.4 °F 94% 30.01 in - ENE 9.2 mph - N/A   Clear
5:00 AM 67 °F - 65 °F 89% 30.02 in 9 mi ENE 9.2 mph - -  
5:55 AM 66.2 °F - 64.4 °F 94% 30.01 in - NNE 8.1 mph - N/A   Clear
6:55 AM 66.2 °F - 64.4 °F 94% 30.01 in - NE 8.1 mph - N/A   Clear
8:00 AM 71 °F - 65 °F 76% 30.00 in 12 mi NNE 6.9 mph - -  
8:55 AM 75.2 °F - 64.4 °F 69% 29.98 in - NNE 2.3 mph - N/A   Clear
9:55 AM 78.8 °F - 62.6 °F 57% 30.01 in - East 3.5 mph - N/A   Clear
10:55 AM 80.6 °F 83.9 °F 69.8 °F 70% 29.98 in - WSW 8.1 mph - N/A   Clear
11:55 AM 80.6 °F 82.3 °F 64.4 °F 58% 29.98 in - WSW 10.4 mph - N/A   Clear
12:55 PM 82.4 °F 84.6 °F 66.2 °F 58% 29.98 in - WSW 11.5 mph - N/A   Clear
1:55 PM 82.4 °F 82.9 °F 60.8 °F 48% 29.98 in - WSW 12.7 mph - N/A   Clear
2:00 PM 82 °F - 60 °F 38% 29.98 in 11 mi WSW 12.7 mph - -  
2:55 PM 84.2 °F 84.4 °F 60.8 °F 45% 29.98 in - West 13.8 mph - N/A   Clear
3:55 PM 82.4 °F 82.5 °F 59.0 °F 45% 29.95 in - West 12.7 mph - N/A   Clear
4:55 PM 82.4 °F 84.6 °F 66.2 °F 58% 29.95 in - West 13.8 mph - N/A   Clear
5:00 PM 83 °F - 67 °F 49% 29.96 in 11 mi West 13.8 mph - -  
5:55 PM 82.4 °F 86.3 °F 69.8 °F 66% 29.95 in - West 10.4 mph - N/A   Clear
6:55 PM 80.6 °F 83.9 °F 69.8 °F 70% 29.95 in - West 11.5 mph - N/A   Clear
7:55 PM 80.6 °F 84.6 °F 71.6 °F 74% 29.95 in - West 11.5 mph - N/A   Clear
8:00 PM 81 °F - 72 °F 66% 29.95 in 9 mi West 11.5 mph - -  
8:55 PM 77.0 °F - 73.4 °F 89% 29.95 in - WNW 3.5 mph - N/A   Clear
9:55 PM 75.2 °F - 73.4 °F 94% 29.95 in - Calm Calm - N/A   Clear
10:55 PM 75.2 °F - 71.6 °F 89% 29.95 in - North 3.5 mph - N/A   Clear
11:55 PM 73.4 °F - 71.6 °F 94% 29.98 in - NE 2.3 mph - N/A   Clear